Temperature
24 22 22 21 21 20 20 20 20 20 20 19 19 19 19 19 19 19 18 18 18 18 18 19 18 18 18 18 18 18 18 18 18 18 19 19 18 18 18 18 18 18 18
24 23 22 22 21 21 20 20 20 20 20 19 19 19 19 19 19 19 18 18 18 18 18 18 19 18 18 18 18 18 18 19 18 18 19 19 19 18 18 18 18 18 18
24 23 22 22 22 21 20 20 20 20 20 19 19 19 19 19 19 19 19 18 18 18 18 18 18 18 18 18 18 18 18 18 18 18 19 20 20 19 19 18 18 18 18
25 24 23 22 22 21 21 21 20 20 20 20 19 19 19 19 19 19 19 18 18 18 18 18 18 18 18 18 18 18 18 18 19 18 18 18 19 19 19 19 18 18 18
25 24 23 22 22 22 21 21 21 20 20 20 20 19 19 19 19 19 19 18 18 18 18 18 18 18 18 18 18 18 18 18 18 18 18 18 18 18 19 19 18 18 18
25 24 23 23 22 22 21 21 21 21 20 20 19 19 19 19 19 19 19 19 19 18 18 18 18 18 18 18 18 18 18 18 18 18 18 18 18 18 18 18 18 18 18
24 24 23 23 22 22 21 21 21 20 20 20 20 19 19 19 19 19 19 19 19 19 18 18 18 18 18 18 18 18 18 18 18 18 18 18 18 18 18 18 18 18 18
24 23 23 22 22 21 21 21 20 20 20 20 20 20 19 19 19 19 19 19 19 19 18 18 18 18 18 18 18 18 18 18 18 18 18 18 18 18 17 18 18 18 18
24 23 23 22 22 21 21 21 21 20 20 20 20 20 19 19 19 19 19 18 18 18 18 18 18 18 18 18 18 18 18 18 18 18 18 18 18 17 17 17 17 18 18
24 23 22 22 22 21 21 20 20 20 20 20 20 19 19 19 19 19 19 19 18 18 18 18 18 18 18 18 18 18 18 18 18 18 18 18 17 17 17 17 17 17 17
23 22 22 22 21 21 21 20 20 20 20 19 19 19 19 19 19 19 19 19 18 18 18 18 18 18 18 17 17 17 17 17 17 17 17 17 17 17 17 17 17 17 17
22 22 21 21 21 21 20 20 20 19 19 19 19 19 19 19 19 18 18 18 18 18 18 18 18 18 17 17 17 17 17 17 17 17 17 17 17 17 17 17 16 16 16
22 21 20 20 20 20 20 20 19 19 19 19 19 19 19 19 18 18 18 18 18 18 17 17 17 17 17 17 17 17 17 17 17 17 17 17 17 17 16 16 16 16 16
21 20 20 20 19 19 19 19 19 19 19 18 18 18 18 18 18 18 18 17 17 17 17 17 17 17 17 17 17 17 17 17 17 17 17 16 16 16 16 16 16 16 15
20 20 19 19 19 19 18 19 19 18 18 18 18 18 18 18 18 17 17 17 17 17 17 17 17 17 17 17 17 17 16 16 16 16 16 16 16 16 16 15 15 15 15
20 19 19 19 18 18 18 18 18 18 18 18 18 17 17 17 17 17 17 17 17 17 17 17 17 16 17 17 17 17 16 16 16 16 16 16 16 16 16 16 15 15 15
20 19 19 18 18 18 18 17 17 17 17 17 17 17 17 17 17 17 17 17 17 17 16 16 16 16 17 17 17 16 16 16 16 16 15 15 16 15 15 15 15 15 15
19 19 18 18 18 18 18 17 17 17 17 17 17 17 16 16 16 16 16 17 16 16 16 16 16 16 16 16 16 16 16 15 15 15 15 15 15 15 15 15 14 14 14
18 18 18 18 18 17 17 17 17 17 17 16 17 17 16 16 16 16 16 16 16 16 16 16 16 16 16 16 16 16 15 15 15 15 15 15 15 15 15 14 14 14 14
17 17 17 17 17 17 17 16 16 16 16 16 16 16 16 16 16 16 16 16 16 16 15 15 15 15 15 15 15 15 15 14 14 15 14 15 15 14 14 14 14 14 13
17 16 16 16 16 16 16 16 16 16 16 16 15 15 15 16 16 16 15 15 15 15 15 15 15 15 15 15 15 15 15 14 14 14 14 14 14 14 14 14 13 13 13
16 16 16 16 16 16 16 16 16 16 15 15 15 15 15 15 15 15 15 15 15 15 15 15 14 14 14 14 15 15 14 14 14 13 13 14 14 14 13 13 13 13 13
16 15 15 15 15 15 15 15 15 15 15 15 15 14 14 14 14 14 14 14 14 14 14 14 14 14 14 14 14 14 14 14 13 13 13 13 13 13 13 13 13 12 12
15 15 15 15 15 15 14 15 15 15 15 15 14 14 14 14 14 14 14 14 14 14 14 14 13 13 13 13 13 14 13 13 13 13 13 13 13 13 13 13 12 12 12
14 14 14 14 14 14 14 14 14 14 14 14 14 14 14 14 14 14 14 14 14 14 13 13 13 13 13 13 13 13 13 13 13 12 12 12 12 12 12 12 12 12 11
14 14 14 14 14 13 13 13 13 14 13 13 13 14 14 13 13 13 13 13 13 13 13 13 13 13 13 13 13 13 12 12 12 12 12 12 12 12 12 12 11 11 11
Wind_Speed
8 7 7 7 6 6 6 5 5 4 4 3 3 3 3 2 2 1 2 1 1 1 1 1 0 1 0 1 1 1 2 1 1 1 1 2 2 2 2 2 1 2 2
9 9 8 8 8 7 7 6 6 5 5 4 2 2 2 2 2 1 1 1 1 0 1 1 1 1 0 1 1 1 1 1 1 1 1 1 3 2 2 2 2 2 2
9 10 10 9 9 8 8 6 6 6 5 5 4 3 3 2 2 2 1 1 0 1 1 1 2 2 2 0 1 1 1 1 1 1 2 1 0 1 2 1 1 1 1
9 10 10 10 10 9 9 8 7 7 6 6 4 4 2 2 2 1 1 1 0 0 0 1 1 2 1 1 1 0 1 2 1 1 1 2 1 1 1 1 1 1 1
9 9 10 9 9 9 9 8 8 7 7 6 5 4 3 2 2 2 2 1 1 0 0 0 1 1 1 2 2 1 1 1 1 1 0 1 2 3 2 2 1 1 1
7 8 8 9 8 8 8 8 8 7 7 7 6 5 4 3 2 1 1 1 1 1 1 1 0 0 1 1 1 1 0 1 2 2 1 1 1 1 1 3 3 3 2
6 6 7 8 9 9 9 8 9 8 8 7 7 6 5 4 4 3 2 2 1 1 1 0 0 0 0 0 1 0 1 0 1 1 1 2 2 2 2 3 3 4 3
5 5 6 7 8 9 9 9 9 8 8 7 7 6 6 4 3 3 3 2 2 1 0 1 1 1 1 1 1 1 1 1 1 2 2 2 2 2 3 3 4 4 4
4 4 4 5 7 8 9 9 9 8 7 7 6 6 5 4 3 3 3 2 2 2 1 2 2 1 1 1 2 1 2 2 3 3 3 3 2 3 3 3 4 5 5
4 3 3 3 5 6 7 7 7 7 7 7 6 5 5 5 4 3 2 2 2 2 2 2 2 2 2 2 3 3 2 3 3 3 3 4 3 3 3 4 4 5 5
3 3 3 3 5 6 6 6 6 6 6 6 5 5 4 4 4 3 3 3 3 3 3 3 2 3 3 2 3 3 3 4 4 4 4 4 4 4 4 4 4 4 4
4 4 4 3 4 5 5 5 5 6 5 5 5 5 4 4 4 4 4 4 4 4 3 3 3 4 3 3 3 4 4 4 4 4 4 5 4 4 5 4 5 4 4
4 4 4 4 4 3 4 4 4 5 5 5 5 5 5 5 5 4 4 4 4 4 3 3 4 4 4 3 3 4 4 5 4 4 4 5 4 4 4 5 5 5 5
3 3 3 3 3 3 2 3 3 3 4 4 4 4 4 4 4 4 4 4 4 4 4 4 4 4 4 4 4 4 4 4 4 4 4 5 5 5 5 5 5 5 5
3 3 2 2 2 2 1 1 2 2 3 4 4 4 4 4 4 4 4 4 4 4 4 4 4 3 3 3 3 4 4 4 4 4 5 5 4 4 5 5 5 5 6
2 2 1 1 1 1 1 1 1 2 3 4 4 4 4 4 4 4 3 3 3 3 3 4 4 4 3 1 1 4 4 4 5 5 5 5 4 4 4 5 7 7 6
1 1 1 0 0 1 1 1 2 2 3 3 3 4 3 3 3 3 3 3 3 3 3 3 3 3 2 1 1 4 5 5 5 5 5 6 4 4 5 5 7 7 6
1 1 0 0 1 1 1 1 1 1 2 2 2 2 3 3 3 3 2 2 2 3 3 3 3 3 2 1 2 4 5 5 5 5 5 6 5 5 5 6 5 6 6
1 1 1 1 1 1 0 0 1 1 1 2 2 2 2 3 3 3 3 3 3 3 3 3 3 4 3 1 3 5 5 5 5 5 5 5 5 3 4 6 6 6 6
2 2 2 2 2 2 1 1 1 2 2 2 2 2 3 3 3 3 3 3 3 3 4 3 4 4 4 2 3 5 5 5 5 5 5 4 4 4 4 6 6 7 6
2 2 2 2 2 2 1 2 2 3 3 3 2 3 3 3 4 3 3 3 4 3 4 4 4 4 5 3 3 4 5 5 6 6 5 3 3 5 6 7 6 7 7
1 2 2 2 2 2 1 2 3 3 3 3 3 3 3 3 3 3 4 4 4 4 4 4 5 4 4 3 2 4 6 8 7 6 5 4 2 5 6 6 5 6 7
1 1 1 2 3 2 2 3 3 3 2 2 2 3 3 3 3 4 4 4 4 5 4 4 4 4 3 2 3 5 7 8 6 5 5 4 4 6 6 6 7 6 5
1 1 2 3 3 3 3 3 3 2 2 2 2 3 3 3 3 4 4 4 4 4 4 4 4 4 4 3 2 3 3 5 6 6 5 5 7 7 6 5 5 5 5
2 2 2 3 3 3 3 3 3 2 2 2 3 3 3 3 3 3 3 4 3 3 4 4 4 4 4 2 3 4 4 4 4 5 5 5 4 4 4 4 4 4 4
2 3 3 3 3 3 3 3 3 3 3 3 3 3 3 2 3 3 2 1 2 1 3 3 5 3 2 1 2 4 5 5 6 5 5 5 5 5 5 5 4 4 4
Wind_Direction
174 173 175 171 167 165 164 170 169 160 166 163 167 156 150 149 139 119 77 49 31 86 315 347 356 295 343 284 215 201 174 182 161 174 169 161 161 154 174 193 206 195 210
175 176 179 179 177 174 174 175 176 171 176 164 173 162 143 152 137 98 86 56 34 272 204 305 285 327 261 246 244 228 243 173 183 243 234 190 161 160 150 175 187 216 216
185 180 184 185 183 182 182 180 179 175 179 170 169 160 158 172 154 143 136 90 342 322 331 304 317 308 293 90 255 240 242 249 200 260 294 288 278 116 131 136 171 217 251
191 187 186 188 188 185 181 180 178 179 179 180 178 174 171 163 145 151 111 126 134 316 312 325 329 328 357 42 257 140 255 260 240 162 254 312 336 290 234 186 155 179 234
190 189 188 188 188 185 182 177 176 177 177 180 177 184 185 183 170 156 127 223 164 205 321 0 350 334 8 34 22 25 323 292 298 299 264 205 220 247 262 273 287 275 257
181 183 183 183 186 185 185 178 174 177 178 181 182 187 194 198 184 188 174 212 192 194 176 183 326 318 14 52 27 356 354 335 331 316 310 279 267 264 258 259 263 278 286
170 173 176 180 183 185 185 179 176 179 181 183 188 189 196 194 195 212 206 241 240 207 168 224 221 304 320 277 306 249 328 306 274 280 299 311 301 293 281 273 286 289 283
156 166 173 177 183 182 182 181 178 180 182 182 187 189 195 202 201 207 229 235 265 261 178 213 218 242 260 263 259 256 239 244 258 273 296 293 294 291 279 279 283 281 278
138 151 168 178 180 181 182 183 180 177 180 183 185 189 196 207 208 207 225 244 254 241 211 229 235 233 237 252 262 274 269 263 258 259 255 267 277 271 276 271 276 282 282
125 125 148 166 169 174 174 178 178 176 178 183 189 187 195 202 205 213 214 234 249 259 246 246 249 255 251 247 255 254 252 257 260 265 282 282 274 273 268 269 271 271 274
112 111 112 136 153 161 164 168 167 168 174 181 186 193 195 203 207 217 224 229 237 238 240 247 251 256 256 253 254 266 266 257 260 262 260 267 283 282 280 277 273 270 269
109 104 104 112 132 150 158 165 168 172 177 179 183 193 200 206 217 222 227 226 231 235 235 243 251 255 254 254 253 259 262 261 262 268 276 278 276 276 281 280 277 273 269
105 101 97 99 110 130 149 162 174 177 181 184 188 191 201 203 215 226 227 226 230 239 240 241 248 252 252 251 253 256 260 261 265 269 272 279 283 280 280 277 274 268 265
116 107 102 95 104 111 130 159 174 177 182 185 190 197 209 212 215 223 225 225 228 233 237 241 244 249 250 250 253 253 255 260 264 267 269 272 273 274 276 273 272 275 274
123 113 104 97 97 117 135 156 177 192 192 191 200 210 220 219 222 225 222 221 228 234 235 242 242 242 241 244 246 253 250 256 262 263 265 269 278 292 287 285 283 278 274
142 131 121 113 110 139 171 194 199 201 207 211 213 216 225 226 225 224 224 227 232 243 245 247 242 244 256 35 295 266 262 263 265 266 266 261 254 256 249 270 284 286 273
149 147 157 180 217 247 218 225 229 221 217 220 221 221 224 229 233 234 228 234 240 240 239 241 237 238 259 98 242 263 262 262 266 265 267 272 270 264 264 247 244 260 263
92 49 347 301 278 275 247 228 218 222 229 236 242 236 229 233 235 231 231 238 245 246 247 246 239 245 250 179 249 267 253 264 267 267 267 269 274 278 283 274 267 262 257
47 24 3 1 2 344 338 236 249 236 239 246 247 245 236 229 226 231 236 234 237 247 250 246 247 251 258 239 254 267 256 257 263 268 269 270 273 292 293 272 267 267 269
47 36 32 25 21 354 325 247 258 260 261 259 257 244 236 236 236 234 238 239 237 243 251 253 255 254 261 249 259 269 264 265 266 260 257 250 267 279 274 267 265 265 271
53 43 31 20 9 351 336 266 266 269 277 277 265 255 243 241 241 240 238 239 239 238 246 252 254 254 259 237 229 255 264 271 270 271 269 269 230 249 253 259 264 269 273
55 36 20 2 344 341 338 311 302 303 294 283 272 264 255 255 246 243 244 242 245 242 241 248 256 253 251 259 244 233 250 279 275 279 285 293 237 248 248 257 270 266 261
6 358 349 338 326 322 323 319 329 332 319 300 287 287 270 262 258 248 243 243 244 254 257 256 260 261 258 236 208 222 238 261 272 283 298 294 253 253 247 239 246 248 254
292 313 318 318 323 322 318 314 319 318 298 289 292 284 273 264 260 261 252 249 250 256 263 264 266 265 262 270 270 262 254 250 264 279 267 237 238 249 259 250 244 252 258
284 291 307 312 314 316 315 316 320 309 291 284 280 276 270 264 263 260 270 265 262 267 264 269 271 268 268 286 316 289 283 282 281 282 273 270 269 265 266 263 260 261 258
282 286 294 297 306 308 307 313 311 297 284 277 281 283 283 274 264 258 258 302 272 230 240 269 288 287 323 342 289 290 299 291 273 271 268 269 267 267 268 269 268 260 257
Height
1521 1523 1525 1526 1527 1528 1529 1530 1531 1532 1533 1534 1535 1536 1537 1538 1538 1539 1538 1538 1538 1537 1538 1538 1537 1537 1537 1536 1536 1536 1536 1537 1537 1538 1538 1538 1539 1539 1539 1539 1540 1540 1539
1519 1521 1523 1525 1526 1528 1529 1529 1531 1532 1533 1534 1535 1536 1537 1538 1539 1539 1538 1538 1538 1538 1538 1537 1537 1537 1536 1535 1535 1535 1536 1536 1537 1537 1538 1538 1539 1538 1538 1538 1538 1538 1538
1517 1519 1521 1523 1525 1527 1528 1529 1530 1531 1533 1534 1535 1536 1537 1538 1539 1538 1538 1538 1538 1537 1537 1537 1536 1536 1536 1535 1534 1534 1535 1536 1536 1536 1537 1537 1536 1537 1538 1537 1537 1537 1537
1514 1517 1520 1522 1523 1525 1527 1528 1529 1531 1532 1533 1535 1536 1537 1538 1538 1538 1538 1538 1537 1537 1537 1536 1536 1535 1535 1534 1534 1534 1535 1535 1536 1536 1535 1536 1536 1537 1537 1537 1536 1536 1535
1512 1515 1518 1520 1522 1524 1526 1527 1528 1530 1531 1532 1533 1535 1536 1537 1538 1538 1537 1537 1537 1536 1536 1536 1535 1535 1535 1534 1534 1534 1534 1535 1535 1535 1535 1535 1535 1536 1536 1535 1536 1535 1534
1511 1514 1516 1519 1521 1523 1525 1526 1527 1528 1530 1531 1532 1533 1535 1536 1536 1537 1537 1537 1537 1536 1536 1536 1535 1535 1535 1534 1533 1533 1534 1534 1533 1534 1534 1535 1535 1535 1534 1534 1534 1533 1533
1510 1512 1514 1516 1518 1520 1523 1524 1525 1526 1528 1530 1531 1532 1533 1534 1535 1536 1536 1536 1536 1536 1535 1535 1534 1534 1534 1534 1533 1533 1533 1533 1533 1533 1533 1533 1533 1533 1533 1533 1532 1531 1531
1508 1510 1512 1514 1516 1518 1520 1522 1523 1525 1527 1528 1529 1531 1532 1533 1534 1534 1535 1535 1535 1535 1534 1534 1534 1533 1533 1533 1533 1533 1533 1533 1532 1532 1532 1532 1532 1532 1531 1531 1531 1530 1529
1507 1509 1511 1513 1514 1516 1518 1520 1521 1523 1525 1527 1528 1529 1530 1531 1532 1533 1533 1534 1533 1534 1533 1533 1532 1532 1532 1532 1532 1532 1532 1532 1532 1532 1531 1531 1530 1530 1529 1529 1529 1529 1527
1507 1509 1510 1511 1513 1515 1516 1518 1520 1521 1523 1525 1526 1528 1529 1529 1530 1531 1531 1531 1531 1531 1531 1531 1531 1531 1531 1531 1531 1531 1530 1530 1530 1529 1529 1528 1529 1528 1527 1527 1526 1526 1526
1507 1508 1509 1511 1512 1513 1515 1517 1518 1520 1522 1523 1524 1526 1527 1528 1528 1529 1529 1529 1529 1529 1529 1529 1529 1529 1529 1529 1529 1529 1529 1528 1528 1527 1527 1526 1526 1526 1525 1525 1524 1523 1523
1507 1508 1509 1510 1511 1513 1515 1516 1517 1519 1520 1521 1522 1523 1524 1525 1526 1526 1526 1527 1527 1527 1527 1527 1527 1527 1527 1527 1527 1527 1527 1526 1526 1525 1525 1524 1524 1522 1522 1522 1521 1520 1519
1508 1509 1509 1510 1511 1513 1514 1515 1517 1518 1518 1519 1520 1521 1522 1522 1523 1523 1524 1524 1524 1525 1525 1525 1525 1525 1525 1525 1525 1524 1524 1524 1523 1523 1522 1521 1521 1520 1520 1519 1518 1518 1517
1508 1509 1509 1510 1511 1512 1513 1514 1515 1516 1517 1517 1518 1519 1519 1520 1520 1521 1521 1521 1522 1522 1522 1522 1522 1522 1522 1522 1522 1522 1521 1521 1520 1520 1519 1519 1518 1517 1516 1516 1514 1514 1513
1508 1508 1509 1510 1511 1512 1512 1513 1514 1514 1515 1516 1516 1517 1517 1517 1518 1518 1518 1519 1519 1519 1519 1519 1520 1520 1520 1520 1519 1519 1519 1518 1517 1517 1516 1516 1515 1514 1513 1513 1512 1511 1510
1507 1508 1509 1509 1510 1510 1511 1511 1512 1512 1513 1514 1514 1515 1515 1515 1515 1515 1516 1516 1516 1516 1516 1516 1517 1517 1517 1516 1516 1516 1516 1515 1514 1513 1513 1512 1511 1510 1509 1508 1507 1507 1506
1507 1507 1508 1508 1509 1509 1510 1510 1510 1511 1511 1511 1512 1512 1512 1513 1513 1513 1513 1513 1513 1513 1513 1513 1513 1513 1513 1513 1512 1512 1512 1511 1511 1510 1509 1509 1508 1507 1505 1504 1503 1502 1501
1506 1506 1507 1507 1507 1508 1508 1508 1509 1509 1509 1509 1510 1510 1510 1510 1510 1510 1510 1510 1510 1510 1510 1510 1510 1510 1509 1509 1509 1509 1508 1508 1507 1506 1505 1504 1503 1502 1501 1500 1499 1498 1497
1505 1505 1506 1506 1506 1506 1506 1506 1507 1507 1507 1507 1507 1507 1507 1507 1506 1506 1507 1507 1507 1507 1507 1507 1506 1506 1506 1505 1505 1505 1504 1504 1503 1502 1501 1500 1499 1498 1497 1496 1495 1493 1492
1504 1504 1504 1504 1504 1504 1504 1504 1505 1505 1505 1504 1504 1504 1504 1503 1503 1503 1503 1503 1503 1503 1503 1503 1502 1502 1502 1501 1501 1501 1501 1500 1499 1498 1497 1496 1495 1494 1492 1491 1490 1489 1488
1502 1503 1503 1503 1502 1502 1502 1502 1502 1502 1502 1502 1501 1500 1500 1500 1500 1500 1500 1500 1500 1499 1499 1499 1498 1498 1497 1497 1497 1497 1496 1496 1496 1495 1494 1492 1490 1489 1488 1487 1486 1484 1483
1501 1501 1501 1500 1500 1500 1500 1499 1499 1499 1498 1498 1498 1497 1497 1497 1497 1496 1496 1496 1496 1495 1495 1495 1495 1494 1494 1493 1492 1492 1492 1492 1491 1491 1490 1488 1486 1485 1483 1483 1482 1480 1480
1500 1500 1500 1499 1499 1498 1498 1497 1496 1496 1495 1495 1495 1494 1494 1494 1494 1493 1493 1493 1492 1493 1492 1492 1491 1490 1490 1489 1488 1488 1488 1487 1487 1486 1485 1483 1482 1480 1479 1478 1477 1476 1476
1498 1498 1498 1497 1496 1496 1495 1494 1494 1493 1492 1492 1492 1491 1491 1491 1490 1490 1490 1489 1489 1489 1489 1488 1488 1487 1487 1486 1484 1484 1484 1483 1482 1482 1480 1479 1477 1476 1475 1474 1473 1472 1472
1496 1496 1495 1494 1494 1493 1493 1492 1491 1490 1490 1489 1489 1489 1488 1487 1487 1486 1486 1486 1486 1485 1485 1484 1484 1484 1483 1482 1481 1480 1479 1479 1478 1477 1476 1475 1474 1472 1471 1470 1469 1468 1467
1493 1493 1492 1492 1491 1491 1490 1489 1488 1488 1487 1487 1486 1486 1486 1485 1484 1483 1482 1482 1482 1481 1481 1480 1480 1480 1479 1478 1477 1476 1476 1475 1474 1473 1472 1471 1470 1468 1467 1466 1465 1464 1463